Location: LDNL
(36.4545°S, 141.6685°E)
Time: 03:15:06
(UTC+11:00)

A-11 Canister half - Pass Details

Date: 12 August 2022
Orbit: 1524 x 1684 km, 47.3° (Epoch: 05 October)

Event Time Altitude Azimuth Distance (km) Brightness Sun altitude
Rises 21:18:37 0° 250° (WSW) 4,690 12.4 -40.8°
Reaches altitude 10° 21:21:52 10° 243° (WSW) 3,709 11.6 -41.4°
Enters shadow 21:29:07 42° 197° (SSW) 2,096 9.7 -42.8°
Maximum altitude 21:30:45 45° 172° (S) 2,018 - -43.1°
Drops below altitude 10° 21:39:46 10° 100° (E) 3,774 - -44.9°
Sets 21:43:07 0° 94° (E) 4,777 - -45.5°
